Home   Weather   Tórshavn   Past weeks

Flag for Faroe Islands Past Weather in Tórshavn, Faroe Islands — Yesterday and Last 2 Weeks

Now
54 °F

Low clouds.


Feels Like: 49 °F
Forecast: 53 / 57 °F
Wind: 15 mph from Southeast

Location: Soervaag / Vagar

Current Time: Aug 18, 2017 at 12:08:32 am

Latest Report: Aug 17, 2017 at 11:50 pm


Visibility: N/A

Pressure: 29.39 "Hg

Humidity: 100%

Dew Point: 54 °F

Location of TórshavnLocation

Past Weather in Tórshavn — Graph

°F

Tórshavn Temperature Yesterday

Maximum temperature yesterday: 55 °F (at 8:50 am)
Minimum temperature yesterday: 54 °F (at 12:20 am)
Average temperature yesterday: 54 °F

High & Low Weather Summary for the Past Weeks

 TemperatureHumidityPressure
High59 °F (Aug 3, 5:20 pm)100% (Aug 5, 4:50 am)30.24 "Hg (Aug 5, 4:50 am)
Low43 °F (Aug 6, 1:20 am)59% (Aug 5, 1:50 pm)29.24 "Hg (Aug 11, 5:50 am)
Average52 °F88%29.77 "Hg
* Reported Aug 2 10:20 pm — Aug 17 10:50 pm, Tórshavn. Weather by CustomWeather, © 2017

Note: Actual official high and low records may vary slightly from our data, if they occured in-between our weather recording intervals... More about our weather records

Advertising

Tórshavn Weather History for the Previous 24 Hours

Scroll right to see more
 ConditionsComfort  
Time TempWeatherWind HumidityBarometerVisibility
10:50 pm
Thu, Aug 17
54 °FMostly cloudy.13 mph100%29.39 "HgN/A
10:20 pm54 °FPassing clouds.16 mph100%29.36 "HgN/A
9:50 pm54 °FMostly cloudy.16 mph100%29.36 "HgN/A
9:20 pm54 °FSprinkles. Low clouds.15 mph100%29.36 "Hg3 mi
8:50 pm54 °FLow clouds.14 mph100%29.36 "Hg6 mi
8:20 pm54 °FLow clouds.16 mph100%29.36 "Hg4 mi
7:50 pm54 °FLow clouds.16 mph100%29.36 "HgN/A
7:20 pm54 °FLow clouds.16 mph100%29.33 "HgN/A
6:50 pm54 °FLow clouds.16 mph100%29.33 "Hg6 mi
6:20 pm54 °FLow clouds.17 mph100%29.33 "HgN/A
5:50 pm55 °FPartly sunny.16 mph94%29.33 "HgN/A
5:20 pm55 °FSprinkles. Low clouds.15 mph94%29.33 "HgN/A
4:50 pm54 °FSprinkles. Fog.15 mph100%29.33 "Hg2 mi
4:20 pm54 °FSprinkles. Partly sunny.15 mph100%29.33 "HgN/A
3:50 pm55 °FPartly sunny.16 mph100%29.33 "HgN/A
3:20 pm55 °FPartly sunny.10 mph94%29.33 "HgN/A
2:50 pm54 °FLow clouds.12 mph100%29.33 "HgN/A
1:50 pm54 °FSprinkles. Partly sunny.16 mph100%29.36 "Hg2 mi
1:20 pm54 °FSprinkles. Partly sunny.15 mph100%29.36 "Hg3 mi
12:50 pm55 °FSprinkles. Fog.15 mph94%29.36 "Hg1 mi
12:20 pm55 °FSprinkles. Partly sunny.16 mph94%29.36 "Hg4 mi
11:50 am55 °FLight rain. Partly sunny.16 mph94%29.36 "Hg4 mi
11:20 am55 °FPartly sunny.13 mph94%29.36 "HgN/A
10:50 am55 °FPartly sunny.10 mph100%29.36 "HgN/A
10:20 am54 °FLight rain. Partly sunny.9 mph100%29.36 "Hg3 mi
9:50 am54 °FLight rain. Partly sunny.10 mph100%29.36 "Hg3 mi
9:20 am54 °FLight rain. Partly sunny.12 mph100%29.36 "Hg5 mi
8:50 am55 °FPartly sunny.12 mph94%29.36 "HgN/A
7:50 am54 °FPartly sunny.12 mph100%29.39 "HgN/A
7:20 am54 °FPartly sunny.13 mph100%29.36 "Hg5 mi
6:50 am54 °FLight rain. Low clouds.15 mph100%29.36 "Hg4 mi
6:20 am54 °FRain. Low clouds.9 mph100%29.36 "Hg4 mi
5:50 am54 °FSprinkles. Partly sunny.9 mph100%29.36 "Hg3 mi
5:20 am54 °FLow clouds.8 mph100%29.36 "HgN/A
4:50 am54 °FLow clouds.7 mph100%29.36 "Hg4 mi
4:20 am54 °FSprinkles. Low clouds.7 mph100%29.36 "Hg3 mi
3:50 am54 °FFog.7 mph100%29.36 "Hg2 mi
3:20 am54 °FDrizzle. Fog.9 mph100%29.39 "Hg1 mi
2:50 am54 °FDrizzle. Fog.10 mph100%29.39 "Hg2 mi
2:20 am54 °FDrizzle. Fog.12 mph100%29.39 "Hg1 mi
1:50 am54 °FLight rain. Fog.15 mph100%29.39 "Hg2 mi
1:20 am54 °FLight rain. Low clouds.15 mph100%29.42 "Hg4 mi
12:50 am54 °FLight rain. Low clouds.17 mph100%29.42 "HgN/A
12:20 am54 °FLight rain. Low clouds.17 mph100%29.45 "Hg5 mi
Weather by CustomWeather, © 2017

See weather overviewHow to use our weather pages